FW0743 Weather Reports


time (UTC)temp
C
wind
direction
speed
KPH
gust
KPH
rain 1hr
cm
rain 24hr
cm
rain mn
cm
humidity
%
barometer
mb
20260904194533 22 300 6.4 19.3 0.00 0.00 0.00 65 1014.3
20260904193007 22 331 8.0 20.9 0.00 0.00 0.00 64 1014.3
20260904191514 22 351 8.0 24.1 0.00 0.00 0.00 62 1014.3
20260904190023 22 300 8.0 19.3 0.00 0.00 0.00 62 1014.3
20260904184536 23 333 9.7 24.1 0.00 0.00 0.00 60 1014.3
20260904183039 23 291 9.7 20.9 0.00 0.00 0.00 61 1014.3
20260904181514 22 322 8.0 20.9 0.00 0.00 0.00 63 1014.4
20260904180016 23 321 9.7 20.9 0.00 0.00 0.00 62 1014.4
20260904174526 23 319 9.7 20.9 0.00 0.00 0.00 60 1014.7
20260904173037 22 307 4.8 20.9 0.00 0.00 0.00 64 1014.6
20260904171511 22 307 11.3 19.3 0.00 0.00 0.00 61 1014.5
20260904170014 22 348 14.5 25.7 0.00 0.00 0.00 62 1014.6
20260904164523 22 5 9.7 20.9 0.00 0.00 0.00 64 1014.7
20260904163026 22 345 8.0 19.3 0.00 0.00 0.00 63 1015.0
20260904161509 22 323 8.0 22.5 0.00 0.00 0.00 65 1014.7
20260904160016 22 63 6.4 17.7 0.00 0.00 0.00 65 1014.8
20260904154518 22 28 8.0 20.9 0.00 0.00 0.00 69 1014.9
20260904153028 22 319 6.4 19.3 0.00 0.00 0.00 68 1014.6
20260904151533 22 53 9.7 17.7 0.00 0.00 0.00 68 1014.6
20260904150008 22 15 6.4 17.7 0.00 0.00 0.00 72 1014.6
20260904144520 22 342 6.4 12.9 0.00 0.00 0.00 73 1014.6
20260904143033 21 323 4.8 20.9 0.00 0.00 0.00 73 1014.7
20260904141529 21 304 6.4 16.1 0.00 0.00 0.00 76 1014.6
20260904140031 21 360 9.7 14.5 0.00 0.00 0.00 77 1014.9
20260904134517 21 28 4.8 12.9 0.00 0.00 0.00 80 1014.9
20260904133019 20 282 3.2 12.9 0.00 0.00 0.00 85 1015.1
20260904131525 20 312 3.2 11.3 0.00 0.00 0.00 90 1014.7
20260904130031 19 26 3.2 11.3 0.00 0.00 0.00 95 1014.6
20260904124514 18 346 3.2 8.0 0.00 0.00 0.00 98 1014.6
20260904123018 17 325 0.0 4.8 0.00 0.00 0.00 98 1014.7
20260904121523 17 308 1.6 4.8 0.00 0.00 0.00 98 1015.0
20260904120029 16 303 0.0 3.2 0.00 0.00 0.00 98 1014.7
20260904114530 16 338 0.0 0.0 0.00 0.00 0.00 98 1014.6
20260904113014 15 338 0.0 0.0 0.00 0.00 0.00 99 1014.6
20260904111523 15 338 0.0 1.6 0.00 0.00 0.00 99 1014.5
20260904110026 14 338 0.0 1.6 0.00 0.00 0.00 98 1014.5
20260904104531 14 338 0.0 1.6 0.00 0.00 0.00 98 1014.3
20260904103032 14 338 0.0 0.0 0.00 0.00 0.00 98 1014.3
20260904101516 14 338 0.0 0.0 0.00 0.00 0.00 98 1014.1
20260904100023 14 338 0.0 1.6 0.00 0.00 0.00 98 1013.8
20260904094545 15 338 0.0 1.6 0.00 0.00 0.00 98 1013.8
20260904093035 15 338 0.0 0.0 0.00 0.00 0.00 97 1013.6
20260904091537 15 338 0.0 0.0 0.00 0.00 0.00 98 1013.7
20260904090040 15 338 0.0 3.2 0.00 0.00 0.00 97 1013.4
20260904084530 15 338 0.0 1.6 0.00 0.00 0.00 98 1013.3
20260904083103 15 338 0.0 0.0 0.00 0.00 0.00 98 1013.1
20260904081511 15 338 0.0 1.6 0.00 0.00 0.00 98 1013.1
20260904080019 15 338 0.0 3.2 0.00 0.00 0.00 97 1013.0
20260904074531 15 338 0.0 3.2 0.00 0.00 0.00 97 1013.1
20260904073003 16 338 0.0 4.8 0.00 0.00 0.00 97 1013.0
20260904071508 16 338 0.0 1.6 0.00 0.00 0.00 97 1013.0
20260904070014 16 338 0.0 0.0 0.00 0.00 0.00 97 1012.9
20260904064520 16 338 0.0 4.8 0.00 0.00 0.00 97 1012.8
20260904063032 16 348 0.0 1.6 0.00 0.00 0.00 97 1012.9
20260904061509 16 348 0.0 1.6 0.00 0.00 0.00 97 1013.2
20260904060016 17 348 0.0 4.8 0.00 0.00 0.00 98 1013.2
20260904054518 17 282 0.0 3.2 0.00 0.00 0.00 97 1013.4
20260904053041 16 282 0.0 3.2 0.00 0.00 0.00 97 1013.5
20260904051537 16 282 0.0 1.6 0.00 0.00 0.00 97 1013.6
20260904050006 16 282 0.0 0.0 0.00 0.00 0.00 97 1013.5
20260904044520 16 282 0.0 0.0 0.00 0.00 0.00 97 1013.6
20260904043032 16 282 0.0 1.6 0.00 0.00 0.00 97 1013.4
20260904041527 16 282 0.0 0.0 0.00 0.00 0.00 96 1013.5
20260904040009 16 282 0.0 0.0 0.00 0.00 0.00 97 1013.4
20260904034511 16 282 0.0 0.0 0.00 0.00 0.00 96 1013.4
20260904033019 16 282 0.0 0.0 0.00 0.00 0.00 96 1013.5
20260904031535 17 282 0.0 3.2 0.00 0.00 0.00 96 1013.5
20260904030030 17 208 0.0 4.8 0.00 0.00 0.00 96 1013.5
20260904024508 17 140 0.0 3.2 0.00 0.00 0.00 96 1013.5
20260904023014 17 40 0.0 1.6 0.00 0.00 0.00 95 1013.5
20260904021525 17 40 0.0 1.6 0.00 0.00 0.00 95 1013.7
20260904020028 17 40 0.0 0.0 0.00 0.00 0.00 95 1013.7
20260904014533 17 40 0.0 1.6 0.00 0.03 0.00 94 1013.6
20260904013012 18 40 0.0 1.6 0.00 0.08 0.00 94 1013.7
20260904011518 18 40 0.0 0.0 0.00 0.13 0.00 93 1013.6
20260904010026 18 40 0.0 0.0 0.00 0.15 0.00 93 1013.8
20260904004534 18 40 0.0 0.0 0.00 0.20 0.00 92 1013.8
20260904003033 18 40 0.0 1.6 0.00 0.28 0.00 92 1013.6
20260904001516 19 40 0.0 1.6 0.00 0.33 0.00 91 1013.4
20260904000024 20 40 0.0 0.0 0.00 0.36 0.00 88 1013.5
20260903234529 20 40 0.0 0.0 0.00 0.36 0.00 87 1013.4
20260903233031 20 40 0.0 0.0 0.00 0.36 0.00 85 1013.3
20260903231512 21 40 0.0 0.0 0.00 0.36 0.00 83 1013.2
20260903230034 22 40 0.0 0.0 0.00 0.36 0.00 82 1013.1
20260903224533 22 40 0.0 0.0 0.00 0.36 0.00 80 1013.0
20260903223031 23 40 0.0 4.8 0.00 0.36 0.00 73 1013.1
20260903221512 23 26 0.0 4.8 0.00 0.36 0.00 71 1013.2
20260903220025 23 58 1.6 4.8 0.00 0.36 0.00 70 1013.2
20260903214530 24 61 0.0 4.8 0.00 0.36 0.00 70 1013.1
20260903213041 24 90 1.6 6.4 0.00 0.36 0.00 68 1013.0
20260903211523 24 30 3.2 8.0 0.00 0.36 0.00 66 1013.2
20260903210018 25 52 3.2 14.5 0.00 0.36 0.00 62 1013.3
20260903204519 25 302 4.8 14.5 0.00 0.36 0.00 64 1013.5
20260903203027 25 338 6.4 17.7 0.00 0.36 0.00 60 1013.5
20260903201535 25 322 3.2 16.1 0.00 0.36 0.00 63 1013.5
20260903200013 26 303 8.0 16.1 0.00 0.36 0.00 61 1013.5